Find Galaxy 8i

NORAD ID: 25086 Int'l Des: 1997-078 Owner: PAN Country: US operational
HEOCIRCULAR

現在のビュー

3D地球を読み込み中...

Galaxy 8iについて

説明を読み込み中...

次回通過

Passes for default location (London). Set your location on the main map for personalized predictions.

高度履歴

Loading altitude history...

軌道要素

1 25086U 97078A 26149.55882141 -.00000132 00000-0 00000-0 0 9995
2 25086 14.0374 10.0382 0008200 49.0922 300.8812 0.99696521103757
Epoch: May 29, 2026 • Age: 16 hours

現在のステータス

高度 35985.1 km
速度 3.07 km/s
衛星直下点 -10.36°S, 90.48°W
打ち上げ日 Dec 8, 1997
運用期間 28.4 years
タイプ other

技術仕様

分類 Payload
質量 3558.00 kg
乾燥質量 1962.00 kg
総質量 3558.00 kg
長さ 4.00 m
直径 3.20 m
スパン 26.20 m
形状 Box + 2 Pan
製造者 HSES
バスタイプ HS-601HP
フェーズステータス Renamed
所有者/国 PAN/US

Most Searched